Surface/Precipitation History
02/08/2018 18:10  to  2/9/2018 18:10
Change End Date:
Date/Time
(MST)
Sf
Temp Chem Water Layer Surface Precipitation
Sfc Pvt Sub Frz Factor Pct Dpth DpthThk IcePct Cond Salin FI Type Intens Accum Rate
02/09/2018 18:06 Dry 14.0F - 25F - - - - - - 0 mhos 0 - None None - -
02/09/2018 18:05 Dry 14.0F - 25F - - - - - - 0 mhos 0 - None None - -
02/09/2018 17:56 Dry 14.5F - 25F - - - - - - 0 mhos 0 - None None - -
02/09/2018 17:50 Dry 15.1F - 25F - - - - - - 0 mhos 0 - None None - -
02/09/2018 17:46 Dry 15.4F - 25F - - - - - - 0 mhos 0 - None None - -
02/09/2018 17:36 Dry 16.9F - 25F - - - - - - 0 mhos 0 - None None - -
02/09/2018 17:35 Dry 16.9F - 25F - - - - - - 0 mhos 0 - None None - -
02/09/2018 17:26 Dry 18.1F - 25F - - - - - - 0 mhos 0 - None None - -
02/09/2018 17:20 Dry 18.9F - 25F - - - - - - 0 mhos 0 - None None - -
02/09/2018 17:15 Dry 19.8F - 25F - - - - - - 0 mhos 0 - None None - -
02/09/2018 17:05 Dry 21.6F - 25F - - - - - - 0 mhos 0 - None None - -
02/09/2018 17:05 Dry 21.6F - 25F - - - - - - 0 mhos 0 - None None - -
02/09/2018 16:55 Dry 23.5F - 25F - - - - - - 0 mhos 0 - None None - -
02/09/2018 16:50 Dry 24.4F - 25F - - - - - - 0 mhos 0 - None None - -
02/09/2018 16:45 Dry 25.3F - 25F - - - - - - 0 mhos 0 - None None - -
Date/Time
(MST)
Sf
Temp Chem Water Layer Surface Precipitation
Sfc Pvt Sub Frz Factor Pct Dpth DpthThk IcePct Cond Salin FI Type Intens Accum Rate
02/09/2018 16:35 Dry 26.8F - 25F - - - - - - 0 mhos 0 - None None - -
02/09/2018 16:35 Dry 26.8F - 25F - - - - - - 0 mhos 0 - None None - -
02/09/2018 16:25 Dry 27.9F - 25F - - - - - - 0 mhos 0 - None None - -
02/09/2018 16:20 Dry 27.7F - 25F - - - - - - 0 mhos 0 - None None - -
02/09/2018 16:15 Dry 28.6F - 25F - - - - - - 0 mhos 0 - None None - -
02/09/2018 16:06 Dry 29.3F - 25F - - - - - - 0 mhos 0 - None None - -
02/09/2018 16:05 Dry 29.3F - 25F - - - - - - 0 mhos 0 - None None - -
02/09/2018 15:55 Dry 30.6F - 25F - - - - - - 0 mhos 0 - None None - -
02/09/2018 15:51 Dry 31.3F - 25F - - - - - - 0 mhos 0 - None None - -
02/09/2018 15:45 Dry 30.6F - 25F - - - - - - 0 mhos 0 - None None - -
02/09/2018 15:35 Dry 29.7F - 25F - - - - - - 0 mhos 0 - None None - -
02/09/2018 15:35 Dry 29.7F - 25F - - - - - - 0 mhos 0 - None None - -
02/09/2018 15:25 Dry 30.4F - 25F - - - - - - 0 mhos 0 - None None - -
02/09/2018 15:20 Dry 30.2F - 24F - - - - - - 0 mhos 0 - None None - -
02/09/2018 15:15 Dry 31.5F - 24F - - - - - - 0 mhos 0 - None None - -
Date/Time
(MST)
Sf
Temp Chem Water Layer Surface Precipitation
Sfc Pvt Sub Frz Factor Pct Dpth DpthThk IcePct Cond Salin FI Type Intens Accum Rate
02/09/2018 15:05 Dry 34.0F - 24F - - - - - - 0 mhos 0 - None None - -
02/09/2018 15:05 Dry 34.0F - 24F - - - - - - 0 mhos 0 - None None - -
02/09/2018 14:55 Dry 36.7F - 24F - - - - - - 0 mhos 0 - None None - -
02/09/2018 14:50 Dry 38.7F - 24F - - - - - - 0 mhos 0 - None None - -
02/09/2018 14:45 Dry 39.6F - 24F - - - - - - 0 mhos 0 - None None - -
02/09/2018 14:35 Dry 40.3F - 24F - - - - - - 0 mhos 1 - None None - -
02/09/2018 14:35 Dry 40.3F - 24F - - - - - - 0 mhos 1 - None None - -
02/09/2018 14:25 Dry 42.8F - 24F - - - - - - 0 mhos 3 - None None - -
02/09/2018 14:20 Dry 43.0F - 24F - - - - - - 0 mhos 4 - None None - -
02/09/2018 14:14 Dry 42.6F - 24F - - - - - - 0 mhos 5 - None None - -
02/09/2018 14:05 Dry 42.4F - 24F - - - - - - 0 mhos 5 - None None - -
02/09/2018 14:04 Dry 42.4F - 24F - - - - - - 0 mhos 5 - None None - -
02/09/2018 13:54 Dry 41.4F - 24F - - - - - - 0 mhos 7 - None None - -
02/09/2018 13:50 Dry 39.6F - 24F - - - - - - 0 mhos 8 - None None - -
02/09/2018 13:44 Dry 39.9F - 24F - - - - - - 0 mhos 9 - None None - -
Date/Time
(MST)
Sf
Temp Chem Water Layer Surface Precipitation
Sfc Pvt Sub Frz Factor Pct Dpth DpthThk IcePct Cond Salin FI Type Intens Accum Rate
02/09/2018 13:35 Dry 41.0F - 24F - - - - - - 0 mhos 12 - None None - -
02/09/2018 13:34 Dry 41.2F - 24F - - - - - - 0 mhos 13 - None None - -
02/09/2018 13:24 Dry 41.2F - 24F - - - - - - 0 mhos 27 - None None - -
02/09/2018 13:20 Dry 41.5F - 24F - - - - - - 0 mhos 34 - None None - -
02/09/2018 13:14 Dry 39.9F - 24F - - - - - - 0 mhos 45 - None None - -
02/09/2018 13:05 Dry 40.6F - 24F - - - - - - 1 mhos 54 - None None - -
02/09/2018 13:04 Dry 40.5F - 24F - - - - - - 1 mhos 55 - None None - -
02/09/2018 12:54 Dry 38.7F - 24F - - - - - - 1 mhos 63 - None None - -
02/09/2018 12:50 Dry 38.5F - 24F - - - - - - 1 mhos 64 - None None - -
02/09/2018 12:44 Dry 38.5F - 24F - - - - - - 1 mhos 75 - None None - -
02/09/2018 12:35 Dry 37.4F - 24F - - - - - - 1 mhos 80 - None None - -
02/09/2018 12:34 Dry 37.4F - 24F - - - - - - 1 mhos 79 - None None - -
02/09/2018 12:24 Dry 38.3F - 24F - - - - - - 1 mhos 90 - None None - -
02/09/2018 12:20 Dry 38.7F - 24F - - - - - - 1 mhos 91 - None None - -
02/09/2018 12:14 Dry 37.8F - 24F - - - - - - 1 mhos 99 - None None - -
Date/Time
(MST)
Sf
Temp Chem Water Layer Surface Precipitation
Sfc Pvt Sub Frz Factor Pct Dpth DpthThk IcePct Cond Salin FI Type Intens Accum Rate
02/09/2018 12:05 Dry 36.7F - 24F - - - - - - 1 mhos 119 - None None - -
02/09/2018 12:04 Dry 36.5F - 24F - - - - - - 1 mhos 76 - None None - -
02/09/2018 11:54 Dry 35.4F - 24F - - - - - - 0 mhos 15 - None None - -
02/09/2018 11:50 Dry 35.4F - 24F - - - - - - 0 mhos 16 - None None - -
02/09/2018 11:44 Dry 34.9F - 24F - - - - - - 0 mhos 13 - Yes - - -
02/09/2018 11:35 Dry 33.6F - 24F - - - - - - 0 mhos 16 - None None - -
02/09/2018 11:34 Dry 33.6F - 24F - - - - - - 0 mhos 16 - None None - -
02/09/2018 11:24 Dry 31.6F - 24F - - - - - - 0 mhos 14 - Yes - - -
02/09/2018 11:20 Dry 30.7F - 24F - - - - - - 0 mhos 14 - None None - -
02/09/2018 11:13 Dry 29.8F - 24F - - - - - - 0 mhos 15 - None None - -
02/09/2018 11:05 Dry 27.3F - 24F - - - - - - 0 mhos 19 - Yes - - -
02/09/2018 11:03 Dry 26.8F - 24F - - - - - - 0 mhos 20 - Yes - - -
02/09/2018 10:53 Dry 23.7F - 24F - - - - - - 0 mhos 24 - Yes - - -
02/09/2018 10:50 Dry 23.0F - 24F - - - - - - 0 mhos 25 - Yes - - -
02/09/2018 10:43 Dry 23.7F - 24F - - - - - - 0 mhos 25 - Yes - - -
Date/Time
(MST)
Sf
Temp Chem Water Layer Surface Precipitation
Sfc Pvt Sub Frz Factor Pct Dpth DpthThk IcePct Cond Salin FI Type Intens Accum Rate
02/09/2018 10:35 Dry 22.5F - 24F - - - - - - 0 mhos 27 - Yes - - -
02/09/2018 10:33 Dry 22.3F - 24F - - - - - - 0 mhos 27 - Yes - - -
02/09/2018 10:23 Dry 21.2F - 24F - - - - - - 0 mhos 28 - Yes - - -
02/09/2018 10:20 Dry 20.8F - 24F - - - - - - 0 mhos 29 - Yes - - -
02/09/2018 10:13 Dry 20.1F - 24F - - - - - - 0 mhos 30 - Yes - - -
02/09/2018 10:05 Dry 19.2F - 24F - - - - - - 0 mhos 27 - Yes - - -
02/09/2018 10:03 Dry 19.0F - 24F - - - - - - 0 mhos 27 - None None - -
02/09/2018 09:53 Dry 17.6F - 24F - - - - - - 0 mhos 28 - None None - -
02/09/2018 09:50 Dry 17.2F - 24F - - - - - - 0 mhos 28 - None None - -
02/09/2018 09:43 Dry 17.1F - 24F - - - - - - 0 mhos 28 - None None - -
02/09/2018 09:35 Dry 16.2F - 24F - - - - - - 0 mhos 31 - None None - -
02/09/2018 09:33 Dry 16.2F - 24F - - - - - - 0 mhos 30 - None None - -
02/09/2018 09:23 Dry 14.9F - 24F - - - - - - 0 mhos 31 - None None - -
02/09/2018 09:20 Dry 14.7F - 24F - - - - - - 0 mhos 31 - None None - -
02/09/2018 09:13 Dry 14.0F - 24F - - - - - - 0 mhos 32 - None None - -
Date/Time
(MST)
Sf
Temp Chem Water Layer Surface Precipitation
Sfc Pvt Sub Frz Factor Pct Dpth DpthThk IcePct Cond Salin FI Type Intens Accum Rate
02/09/2018 09:05 Dry 13.3F - 24F - - - - - - 0 mhos 31 - None None - -
02/09/2018 09:03 Dry 12.9F - 24F - - - - - - 0 mhos 31 - None None - -
02/09/2018 08:53 Dry 11.3F - 24F - - - - - - 0 mhos 34 - None None - -
02/09/2018 08:50 Dry 11.3F - 24F - - - - - - 0 mhos 34 - None None - -
02/09/2018 08:43 Dry 10.4F - 24F - - - - - - 0 mhos 34 - None None - -
02/09/2018 08:35 Dry 10.0F - 24F - - - - - - 0 mhos 33 - Yes - - -
02/09/2018 08:32 Dry 9.5F - 24F - - - - - - 0 mhos 33 - Yes - - -
02/09/2018 08:22 Dry 8.6F - 24F - - - - - - 0 mhos 33 - None None - -
02/09/2018 08:20 Dry 8.6F - 24F - - - - - - 0 mhos 33 - None None - -
02/09/2018 08:12 Dry 8.4F - 24F - - - - - - 0 mhos 33 - None None - -
02/09/2018 08:04 Dry 8.2F - 24F - - - - - - 0 mhos 33 - None None - -
02/09/2018 08:02 Dry 8.4F - 24F - - - - - - 0 mhos 33 - None None - -
02/09/2018 07:52 Dry 8.8F - 24F - - - - - - 0 mhos 34 - Yes - - -
02/09/2018 07:49 Dry 8.8F - 24F - - - - - - 0 mhos 34 - None None - -
02/09/2018 07:42 Dry 9.0F - 24F - - - - - - 0 mhos 34 - Yes - - -
Date/Time
(MST)
Sf
Temp Chem Water Layer Surface Precipitation
Sfc Pvt Sub Frz Factor Pct Dpth DpthThk IcePct Cond Salin FI Type Intens Accum Rate
02/09/2018 07:34 Dry 9.0F - 24F - - - - - - 0 mhos 34 - Yes - - -
02/09/2018 07:32 Dry 9.0F - 24F - - - - - - 0 mhos 35 - None None - -
02/09/2018 07:22 Dry 9.3F - 24F - - - - - - 0 mhos 35 - Yes - - -
02/09/2018 07:20 Dry 9.3F - 24F - - - - - - 0 mhos 35 - Yes - - -
02/09/2018 07:12 Dry 9.3F - 24F - - - - - - 0 mhos 35 - None None - -
02/09/2018 07:05 Dry 9.3F - 24F - - - - - - 0 mhos 35 - None None - -
02/09/2018 07:02 Dry 9.5F - 24F - - - - - - 0 mhos 35 - None None - -
02/09/2018 06:52 Dry 9.3F - 24F - - - - - - 0 mhos 35 - None None - -
02/09/2018 06:50 Dry 9.3F - 24F - - - - - - 0 mhos 35 - None None - -
02/09/2018 06:42 Dry 9.3F - 24F - - - - - - 0 mhos 35 - None None - -
02/09/2018 06:36 Dry 9.3F - 24F - - - - - - 0 mhos 35 - None None - -
02/09/2018 06:32 Dry 9.5F - 24F - - - - - - 0 mhos 35 - None None - -
02/09/2018 06:22 Dry 9.7F - 24F - - - - - - 0 mhos 35 - None None - -
02/09/2018 06:21 Dry 9.7F - 24F - - - - - - 0 mhos 35 - None None - -
02/09/2018 06:12 Dry 9.7F - 24F - - - - - - 0 mhos 35 - None None - -
Date/Time
(MST)
Sf
Temp Chem Water Layer Surface Precipitation
Sfc Pvt Sub Frz Factor Pct Dpth DpthThk IcePct Cond Salin FI Type Intens Accum Rate
02/09/2018 06:06 Dry 9.7F - 24F - - - - - - 0 mhos 35 - Yes - - -
02/09/2018 06:02 Dry 9.9F - 24F - - - - - - 0 mhos 36 - None None - -
02/09/2018 05:52 Dry 9.9F - 24F - - - - - - 0 mhos 36 - Yes - - -
02/09/2018 05:51 Dry 10.0F - 24F - - - - - - 0 mhos 36 - Yes - - -
02/09/2018 05:42 Dry 9.7F - 24F - - - - - - 0 mhos 35 - Yes - - -
02/09/2018 05:36 Dry 9.3F - 24F - - - - - - 0 mhos 35 - Yes - - -
02/09/2018 05:32 Dry 9.5F - 24F - - - - - - 0 mhos 36 - Yes - - -
02/09/2018 05:22 Dry 9.5F - 24F - - - - - - 0 mhos 36 - Yes - - -
02/09/2018 05:21 Dry 9.5F - 24F - - - - - - 0 mhos 35 - Yes - - -
02/09/2018 05:12 Dry 9.3F - 24F - - - - - - 0 mhos 35 - Yes - - -
02/09/2018 05:06 Dry 9.1F - 24F - - - - - - 0 mhos 35 - Yes - - -
02/09/2018 05:02 Dry 9.1F - 24F - - - - - - 0 mhos 35 - Yes - - -
02/09/2018 04:52 Dry 9.3F - 25F - - - - - - 0 mhos 35 - None None - -
02/09/2018 04:51 Dry 9.3F - 25F - - - - - - 0 mhos 35 - None None - -
02/09/2018 04:42 Dry 9.3F - 25F - - - - - - 0 mhos 35 - Yes - - -
Date/Time
(MST)
Sf
Temp Chem Water Layer Surface Precipitation
Sfc Pvt Sub Frz Factor Pct Dpth DpthThk IcePct Cond Salin FI Type Intens Accum Rate
02/09/2018 04:36 Dry 9.3F - 25F - - - - - - 0 mhos 35 - Yes - - -
02/09/2018 04:31 Dry 9.5F - 25F - - - - - - 0 mhos 35 - None None - -
02/09/2018 04:21 Dry 9.5F - 25F - - - - - - 0 mhos 35 - Yes - - -
02/09/2018 04:21 Dry 9.5F - 25F - - - - - - 0 mhos 35 - Yes - - -
02/09/2018 04:11 Dry 9.3F - 25F - - - - - - 0 mhos 35 - Yes - - -
02/09/2018 04:06 Dry 9.3F - 25F - - - - - - 0 mhos 35 - Yes - - -
02/09/2018 04:01 Dry 9.3F - 25F - - - - - - 0 mhos 35 - Yes - - -
02/09/2018 03:51 Dry 9.3F - 25F - - - - - - 0 mhos 35 - Yes - - -
02/09/2018 03:51 Dry 9.3F - 25F - - - - - - 0 mhos 35 - Yes - - -
02/09/2018 03:41 Dry 9.1F - 25F - - - - - - 0 mhos 35 - Yes - - -
02/09/2018 03:36 Dry 8.8F - 25F - - - - - - 0 mhos 34 - Yes - - -
02/09/2018 03:31 Dry 8.8F - 25F - - - - - - 0 mhos 34 - None None - -
02/09/2018 03:21 Dry 8.4F - 25F - - - - - - 0 mhos 34 - Yes - - -
02/09/2018 03:21 Dry 8.4F - 25F - - - - - - 0 mhos 34 - Yes - - -
02/09/2018 03:11 Dry 8.2F - 25F - - - - - - 0 mhos 33 - Yes - - -
Date/Time
(MST)
Sf
Temp Chem Water Layer Surface Precipitation
Sfc Pvt Sub Frz Factor Pct Dpth DpthThk IcePct Cond Salin FI Type Intens Accum Rate
02/09/2018 03:06 Dry 8.1F - 25F - - - - - - 0 mhos 33 - Yes - - -
02/09/2018 03:01 Dry 8.2F - 25F - - - - - - 0 mhos 33 - None None - -
02/09/2018 02:51 Dry 8.6F - 25F - - - - - - 0 mhos 34 - Yes - - -
02/09/2018 02:51 Dry 8.6F - 25F - - - - - - 0 mhos 34 - Yes - - -
02/09/2018 02:41 Dry 9.0F - 25F - - - - - - 0 mhos 34 - Yes - - -
02/09/2018 02:36 Dry 9.1F - 25F - - - - - - 0 mhos 34 - Yes - - -
02/09/2018 02:31 Dry 9.0F - 25F - - - - - - 0 mhos 34 - Yes - - -
02/09/2018 02:21 Dry 8.8F - 25F - - - - - - 0 mhos 34 - Yes - - -
02/09/2018 02:21 Dry 8.8F - 25F - - - - - - 0 mhos 34 - Yes - - -
02/09/2018 02:11 Dry 9.0F - 25F - - - - - - 0 mhos 34 - Yes - - -
02/09/2018 02:05 Dry 9.0F - 25F - - - - - - 0 mhos 33 - Yes - - -
02/09/2018 02:01 Dry 8.8F - 25F - - - - - - 0 mhos 33 - Yes - - -
02/09/2018 01:51 Dry 8.8F - 25F - - - - - - 0 mhos 33 - None None - -
02/09/2018 01:51 Dry 8.8F - 25F - - - - - - 0 mhos 33 - None None - -
02/09/2018 01:40 Dry 8.8F - 25F - - - - - - 0 mhos 33 - None None - -
Date/Time
(MST)
Sf
Temp Chem Water Layer Surface Precipitation
Sfc Pvt Sub Frz Factor Pct Dpth DpthThk IcePct Cond Salin FI Type Intens Accum Rate
02/09/2018 01:36 Dry 8.8F - 26F - - - - - - 0 mhos 33 - None None - -
02/09/2018 01:30 Dry 8.8F - 26F - - - - - - 0 mhos 33 - None None - -
02/09/2018 01:21 Dry 8.6F - 26F - - - - - - 0 mhos 33 - None None - -
02/09/2018 01:20 Dry 8.6F - 26F - - - - - - 0 mhos 33 - None None - -
02/09/2018 01:10 Dry 8.2F - 26F - - - - - - 0 mhos 33 - None None - -
02/09/2018 01:06 Dry 8.2F - 26F - - - - - - 0 mhos 33 - None None - -
02/09/2018 01:00 Dry 8.4F - 26F - - - - - - 0 mhos 33 - None None - -
02/09/2018 00:51 Dry 8.4F - 26F - - - - - - 0 mhos 33 - None None - -
02/09/2018 00:50 Dry 8.4F - 26F - - - - - - 0 mhos 33 - None None - -
02/09/2018 00:40 Dry 8.6F - 26F - - - - - - 0 mhos 33 - None None - -
02/09/2018 00:36 Dry 8.8F - 26F - - - - - - 0 mhos 33 - None None - -
02/09/2018 00:30 Dry 9.0F - 26F - - - - - - 0 mhos 33 - Yes - - -
02/09/2018 00:21 Dry 9.3F - 26F - - - - - - 0 mhos 33 - Yes - - -
02/09/2018 00:20 Dry 9.3F - 26F - - - - - - 0 mhos 33 - Yes - - -
02/09/2018 00:10 Dry 8.8F - 26F - - - - - - 0 mhos 33 - Yes - - -
Date/Time
(MST)
Sf
Temp Chem Water Layer Surface Precipitation
Sfc Pvt Sub Frz Factor Pct Dpth DpthThk IcePct Cond Salin FI Type Intens Accum Rate
02/09/2018 00:06 Dry 9.0F - 26F - - - - - - 0 mhos 33 - None None - -
02/09/2018 00:00 Dry 9.3F - 26F - - - - - - 0 mhos 33 - None None - -
02/08/2018 23:51 Dry 9.9F - 26F - - - - - - 0 mhos 34 - Yes - - -
02/08/2018 23:50 Dry 9.9F - 26F - - - - - - 0 mhos 34 - Yes - - -
02/08/2018 23:40 Dry 9.9F - 26F - - - - - - 0 mhos 34 - Yes - - -
02/08/2018 23:36 Dry 9.9F - 26F - - - - - - 0 mhos 34 - Yes - - -
02/08/2018 23:30 Dry 10.0F - 26F - - - - - - 0 mhos 34 - Yes - - -
02/08/2018 23:21 Dry 10.2F - 26F - - - - - - 0 mhos 34 - Yes - - -
02/08/2018 23:20 Dry 10.2F - 26F - - - - - - 0 mhos 34 - Yes - - -
02/08/2018 23:10 Dry 10.2F - 26F - - - - - - 0 mhos 34 - Yes - - -
02/08/2018 23:06 Dry 10.4F - 26F - - - - - - 0 mhos 34 - Yes - - -
02/08/2018 23:00 Dry 10.4F - 26F - - - - - - 0 mhos 34 - Yes - - -
02/08/2018 22:51 Dry 10.2F - 26F - - - - - - 0 mhos 34 - None None - -
02/08/2018 22:50 Dry 10.4F - 26F - - - - - - 0 mhos 34 - None None - -
02/08/2018 22:39 Dry 10.4F - 26F - - - - - - 0 mhos 33 - None None - -
Date/Time
(MST)
Sf
Temp Chem Water Layer Surface Precipitation
Sfc Pvt Sub Frz Factor Pct Dpth DpthThk IcePct Cond Salin FI Type Intens Accum Rate
02/08/2018 22:36 Dry 10.6F - 26F - - - - - - 0 mhos 34 - None None - -
02/08/2018 22:29 Dry 10.9F - 26F - - - - - - 0 mhos 34 - None None - -
02/08/2018 22:21 Dry 10.9F - 26F - - - - - - 0 mhos 34 - None None - -
02/08/2018 22:19 Dry 10.9F - 26F - - - - - - 0 mhos 34 - None None - -
02/08/2018 22:09 Dry 10.9F - 27F - - - - - - 0 mhos 34 - None None - -
02/08/2018 22:06 Dry 10.8F - 27F - - - - - - 0 mhos 34 - None None - -
02/08/2018 21:59 Dry 10.9F - 27F - - - - - - 0 mhos 34 - None None - -
02/08/2018 21:51 Dry 10.6F - 27F - - - - - - 0 mhos 34 - None None - -
02/08/2018 21:49 Dry 10.6F - 27F - - - - - - 0 mhos 34 - None None - -
02/08/2018 21:39 Dry 10.2F - 27F - - - - - - 0 mhos 33 - None None - -
02/08/2018 21:36 Dry 10.2F - 27F - - - - - - 0 mhos 33 - None None - -
02/08/2018 21:29 Dry 10.2F - 27F - - - - - - 0 mhos 34 - None None - -
02/08/2018 21:21 Dry 10.2F - 27F - - - - - - 0 mhos 33 - Yes - - -
02/08/2018 21:19 Dry 10.2F - 27F - - - - - - 0 mhos 33 - Yes - - -
02/08/2018 21:09 Dry 10.2F - 27F - - - - - - 0 mhos 34 - Yes - - -
Date/Time
(MST)
Sf
Temp Chem Water Layer Surface Precipitation
Sfc Pvt Sub Frz Factor Pct Dpth DpthThk IcePct Cond Salin FI Type Intens Accum Rate
02/08/2018 21:06 Dry 10.4F - 27F - - - - - - 0 mhos 33 - Yes - - -
02/08/2018 20:59 Dry 10.6F - 27F - - - - - - 0 mhos 33 - Yes - - -
02/08/2018 20:51 Dry 10.6F - 27F - - - - - - 0 mhos 33 - None None - -
02/08/2018 20:49 Dry 10.8F - 27F - - - - - - 0 mhos 33 - None None - -
02/08/2018 20:39 Dry 10.2F - 27F - - - - - - 0 mhos 32 - None None - -
02/08/2018 20:36 Dry 10.2F - 27F - - - - - - 0 mhos 32 - None None - -
02/08/2018 20:29 Dry 10.2F - 27F - - - - - - 0 mhos 32 - None None - -
02/08/2018 20:21 Dry 10.2F - 27F - - - - - - 0 mhos 31 - None None - -
02/08/2018 20:19 Dry 10.2F - 27F - - - - - - 0 mhos 31 - None None - -
02/08/2018 20:09 Dry 10.2F - 27F - - - - - - 0 mhos 30 - None None - -
02/08/2018 20:06 Dry 10.2F - 27F - - - - - - 0 mhos 30 - Yes - - -
02/08/2018 19:59 Dry 10.4F - 27F - - - - - - 0 mhos 30 - Yes - - -
02/08/2018 19:51 Dry 10.4F - 27F - - - - - - 0 mhos 30 - None None - -
02/08/2018 19:49 Dry 10.4F - 27F - - - - - - 0 mhos 30 - None None - -
02/08/2018 19:38 Dry 10.4F - 28F - - - - - - 0 mhos 30 - None None - -
Date/Time
(MST)
Sf
Temp Chem Water Layer Surface Precipitation
Sfc Pvt Sub Frz Factor Pct Dpth DpthThk IcePct Cond Salin FI Type Intens Accum Rate
02/08/2018 19:36 Dry 10.4F - 28F - - - - - - 0 mhos 30 - None None - -
02/08/2018 19:28 Dry 10.8F - 28F - - - - - - 0 mhos 30 - None None - -
02/08/2018 19:20 Dry 10.9F - 28F - - - - - - 0 mhos 30 - None None - -
02/08/2018 19:18 Dry 11.1F - 28F - - - - - - 0 mhos 30 - None None - -
02/08/2018 19:08 Dry 11.3F - 28F - - - - - - 0 mhos 31 - None None - -
02/08/2018 19:06 Dry 11.5F - 28F - - - - - - 0 mhos 31 - None None - -
02/08/2018 18:58 Dry 11.7F - 28F - - - - - - 0 mhos 31 - Yes - - -
02/08/2018 18:51 Dry 11.7F - 28F - - - - - - 0 mhos 31 - Yes - - -
02/08/2018 18:48 Dry 11.7F - 28F - - - - - - 0 mhos 31 - Yes - - -
02/08/2018 18:38 Dry 11.8F - 28F - - - - - - 0 mhos 30 - None None - -
02/08/2018 18:36 Dry 12.0F - 28F - - - - - - 0 mhos 26 - None None - -
02/08/2018 18:28 Dry 12.2F - 28F - - - - - - 0 mhos 26 - Yes - - -
02/08/2018 18:20 Dry 12.6F - 28F - - - - - - 0 mhos 26 - Yes - - -
02/08/2018 18:18 Dry 12.7F - 28F - - - - - - 0 mhos 26 - None None - -
Change End Date:

Copyright © 1998-2015 Vaisala, Inc.
All Rights Reserved
Send comments about the data to:
SCAN Web ® is a registered trademark of Vaisala, Inc.
SCAN Web Version 6.0